�������C�����ː����j�^�v���󋵏��
Date,Time,Cs137(Bq/L),Cs134(Bq/L),�S��(Bq/L)
2016/10/26,00:00,0.82,0.10,ND
2016/10/26,00:10,0.81,0.11,ND
2016/10/26,00:20,0.80,0.092,ND
2016/10/26,00:30,0.80,0.093,ND
2016/10/26,00:40,0.82,0.099,ND
2016/10/26,00:50,0.83,0.094,ND
2016/10/26,01:00,0.80,0.086,ND
2016/10/26,01:10,0.80,0.087,ND
2016/10/26,01:20,0.81,0.081,ND
2016/10/26,01:30,0.80,0.091,ND
2016/10/26,01:40,0.78,0.091,ND
2016/10/26,01:50,0.79,0.094,ND
2016/10/26,02:00,0.82,0.082,ND
2016/10/26,02:10,0.82,0.074,ND
2016/10/26,02:20,0.80,0.079,ND
2016/10/26,02:30,0.85,0.082,ND
2016/10/26,02:40,0.85,0.087,ND
2016/10/26,02:50,0.84,0.095,ND
2016/10/26,03:00,0.81,0.10,ND
2016/10/26,03:10,0.82,0.11,ND
2016/10/26,03:20,0.82,0.12,ND
2016/10/26,03:30,0.82,0.12,ND
2016/10/26,03:40,0.83,0.13,ND
2016/10/26,03:50,0.84,0.13,ND
2016/10/26,04:00,0.84,0.11,ND
2016/10/26,04:10,0.86,0.11,ND
2016/10/26,04:20,0.92,0.12,ND
2016/10/26,04:30,0.95,0.13,ND
2016/10/26,04:40,0.97,0.12,ND
2016/10/26,04:50,1.1,0.13,ND
2016/10/26,05:00,1.1,0.13,ND
2016/10/26,05:10,1.0,0.12,ND
2016/10/26,05:20,1.0,0.13,ND
2016/10/26,05:30,1.0,0.12,ND
2016/10/26,05:40,0.98,0.12,ND
2016/10/26,05:50,0.95,0.12,ND
2016/10/26,06:00,0.97,0.11,ND
2016/10/26,06:10,0.97,0.12,ND
2016/10/26,06:20,0.97,0.11,ND
2016/10/26,06:30,0.97,0.11,ND
2016/10/26,06:40,1.0,0.11,ND
2016/10/26,06:50,1.0,0.11,ND
2016/10/26,07:00,1.1,0.13,ND
2016/10/26,07:10,1.0,0.14,ND
2016/10/26,07:20,1.1,0.13,ND
2016/10/26,07:30,1.1,0.12,ND
2016/10/26,07:40,1.1,0.11,ND
2016/10/26,07:50,1.0,0.13,ND
2016/10/26,08:00,1.0,0.10,ND
2016/10/26,08:10,1.0,0.10,ND
2016/10/26,08:20,0.99,0.10,ND
2016/10/26,08:30,0.97,0.11,ND
2016/10/26,08:40,0.94,0.11,ND
2016/10/26,08:50,0.92,0.11,ND
2016/10/26,09:00,0.91,0.11,ND
2016/10/26,09:10,0.90,0.12,ND
2016/10/26,09:20,0.94,0.12,ND
2016/10/26,09:30,0.95,0.12,ND
2016/10/26,09:40,0.93,0.12,ND
2016/10/26,09:50,0.91,0.11,ND
2016/10/26,10:00,0.89,0.11,ND
2016/10/26,10:10,0.91,0.10,ND
2016/10/26,10:20,0.90,0.11,ND
2016/10/26,10:30,0.88,0.12,ND
2016/10/26,10:40,0.91,0.12,ND
2016/10/26,10:50,0.90,0.11,ND
2016/10/26,11:00,0.91,0.12,ND
2016/10/26,11:10,0.90,0.11,ND
2016/10/26,11:20,0.94,0.11,ND
2016/10/26,11:30,1.0,0.14,ND
2016/10/26,11:40,0.99,0.12,ND
2016/10/26,11:50,1.1,0.13,ND
2016/10/26,12:00,1.1,0.13,ND
2016/10/26,12:10,1.1,0.15,ND
2016/10/26,12:20,1.1,0.15,ND
2016/10/26,12:30,1.1,0.15,ND
2016/10/26,12:40,1.2,0.16,ND
2016/10/26,12:50,1.2,0.15,ND
2016/10/26,13:00,1.2,0.15,ND
2016/10/26,13:10,1.2,0.14,ND
2016/10/26,13:20,1.3,0.14,ND
2016/10/26,13:30,1.3,0.13,ND
2016/10/26,13:40,1.2,0.12,ND
2016/10/26,13:50,1.2,0.12,ND
2016/10/26,14:00,1.2,0.12,ND
2016/10/26,14:10,1.2,0.13,ND
2016/10/26,14:20,1.1,0.13,ND
2016/10/26,14:30,1.1,0.13,ND
2016/10/26,14:40,1.1,0.12,ND
2016/10/26,14:50,0.99,0.14,ND
2016/10/26,15:00,1.1,0.14,ND
2016/10/26,15:10,1.0,0.13,ND
2016/10/26,15:20,1.0,0.13,ND
2016/10/26,15:30,1.0,0.11,ND
2016/10/26,15:40,1.1,0.13,ND
2016/10/26,15:50,1.1,0.11,ND
2016/10/26,16:00,1.1,0.12,ND
2016/10/26,16:10,1.1,0.13,ND
2016/10/26,16:20,1.1,0.12,ND
2016/10/26,16:30,1.1,0.11,ND
2016/10/26,16:40,1.1,0.12,ND
2016/10/26,16:50,1.1,0.12,ND
2016/10/26,17:00,1.0,0.12,ND
2016/10/26,17:10,1.1,0.11,ND
2016/10/26,17:20,1.1,0.11,ND
2016/10/26,17:30,1.1,0.13,ND
2016/10/26,17:40,1.1,0.13,ND
2016/10/26,17:50,1.1,0.14,ND
2016/10/26,18:00,1.1,0.14,ND
2016/10/26,18:10,1.1,0.13,ND
2016/10/26,18:20,1.0,0.13,ND
2016/10/26,18:30,1.0,0.13,ND
2016/10/26,18:40,1.0,0.12,ND
2016/10/26,18:50,1.1,0.11,ND
2016/10/26,19:00,1.1,0.11,ND
2016/10/26,19:10,1.1,0.11,ND
2016/10/26,19:20,1.1,0.12,ND
2016/10/26,19:30,1.1,0.13,ND
2016/10/26,19:40,1.1,0.13,ND
2016/10/26,19:50,1.1,0.13,ND
2016/10/26,20:00,1.1,0.13,ND
2016/10/26,20:10,1.1,0.13,ND
2016/10/26,20:20,1.1,0.14,ND
2016/10/26,20:30,1.1,0.13,ND
2016/10/26,20:40,1.1,0.12,ND
2016/10/26,20:50,1.1,0.12,ND
2016/10/26,21:00,1.1,0.12,ND
2016/10/26,21:10,1.2,0.12,ND
2016/10/26,21:20,1.1,0.12,ND
2016/10/26,21:30,1.1,0.12,ND
2016/10/26,21:40,1.1,0.12,ND
2016/10/26,21:50,1.0,0.12,ND
2016/10/26,22:00,1.0,0.12,ND
2016/10/26,22:10,1.0,0.12,ND
2016/10/26,22:20,1.0,0.12,ND
2016/10/26,22:30,1.0,0.13,ND
2016/10/26,22:40,1.0,0.13,ND
2016/10/26,22:50,1.0,0.13,ND
2016/10/26,23:00,1.0,0.13,ND
2016/10/26,23:10,0.99,0.12,ND
2016/10/26,23:20,0.94,0.12,ND
2016/10/26,23:30,0.95,0.10,9.0
2016/10/26,23:40,0.93,0.11,ND
2016/10/26,23:50,0.94,0.10,ND
